Time,TemperatureF,DewpointF,PressureIn,WindDirection,WindDirectionDegrees,WindSpeedMPH,WindSpeedGustMPH,Humidity,HourlyPrecipIn,Conditions,Clouds,dailyrainin,SoftwareType,DateUTC
2013-06-08 00:07:00,69.6,68.1,29.80,SW,215,0.0,1.0,95,0.00,,,0.00,Wunderground v.1.15,2013-06-08 04:07:00,
2013-06-08 00:12:00,69.6,68.4,29.81,SW,215,0.0,1.0,96,0.00,,,0.00,Wunderground v.1.15,2013-06-08 04:12:00,
2013-06-08 00:18:00,69.5,68.0,29.80,SW,215,0.0,0.0,95,0.00,,,0.00,Wunderground v.1.15,2013-06-08 04:18:00,
2013-06-08 00:23:00,69.4,67.9,29.80,SSW,213,2.0,3.0,95,0.00,,,0.00,Wunderground v.1.15,2013-06-08 04:23:00,
2013-06-08 00:28:00,69.4,68.2,29.80,SSW,213,0.0,1.0,96,0.00,,,0.00,Wunderground v.1.15,2013-06-08 04:28:00,
2013-06-08 00:33:00,69.4,67.9,29.81,SSW,213,0.0,0.0,95,0.00,,,0.00,Wunderground v.1.15,2013-06-08 04:33:00,
2013-06-08 00:39:00,69.3,68.1,29.80,SSW,213,0.0,0.0,96,0.00,,,0.00,Wunderground v.1.15,2013-06-08 04:39:00,
2013-06-08 00:44:00,69.2,68.0,29.81,SSW,213,0.0,0.0,96,0.00,,,0.00,Wunderground v.1.15,2013-06-08 04:44:00,
2013-06-08 00:49:00,69.1,67.9,29.81,SSW,213,0.0,0.0,96,0.00,,,0.00,Wunderground v.1.15,2013-06-08 04:49:00,
2013-06-08 00:55:00,69.0,67.8,29.81,SSW,213,0.0,0.0,96,0.00,,,0.00,Wunderground v.1.15,2013-06-08 04:55:00,
2013-06-08 01:00:00,69.0,67.8,29.81,SSW,213,0.0,0.0,96,0.00,,,0.00,Wunderground v.1.15,2013-06-08 05:00:00,
2013-06-08 01:05:00,68.8,67.6,29.80,SW,218,0.0,0.0,96,0.00,,,0.00,Wunderground v.1.15,2013-06-08 05:05:00,
2013-06-08 01:11:00,68.7,67.5,29.81,SW,218,0.0,0.0,96,0.00,,,0.00,Wunderground v.1.15,2013-06-08 05:11:00,
2013-06-08 01:16:00,68.6,67.4,29.81,SW,218,0.0,0.0,96,0.00,,,0.00,Wunderground v.1.15,2013-06-08 05:16:00,
2013-06-08 01:22:00,68.6,67.4,29.81,SW,218,0.0,0.0,96,0.00,,,0.00,Wunderground v.1.15,2013-06-08 05:22:00,
2013-06-08 01:27:00,68.6,67.4,29.80,SW,218,3.0,3.0,96,0.00,,,0.00,Wunderground v.1.15,2013-06-08 05:27:00,
2013-06-08 01:33:00,68.7,67.5,29.80,SW,218,3.0,3.0,96,0.00,,,0.00,Wunderground v.1.15,2013-06-08 05:33:00,
2013-06-08 01:38:00,68.7,67.5,29.81,SW,225,2.0,4.0,96,0.00,,,0.00,Wunderground v.1.15,2013-06-08 05:38:00,
2013-06-08 01:43:00,68.7,67.5,29.80,SW,221,4.0,4.0,96,0.00,,,0.00,Wunderground v.1.15,2013-06-08 05:43:00,
2013-06-08 01:48:00,68.7,67.5,29.81,SW,220,2.0,6.0,96,0.00,,,0.00,Wunderground v.1.15,2013-06-08 05:48:00,
2013-06-08 01:54:00,68.6,67.4,29.81,SW,220,0.0,2.0,96,0.00,,,0.00,Wunderground v.1.15,2013-06-08 05:54:00,
2013-06-08 02:00:00,68.5,67.3,29.81,SW,220,0.0,2.0,96,0.00,,,0.00,Wunderground v.1.15,2013-06-08 06:00:00,
2013-06-08 02:06:00,68.4,67.2,29.81,SW,220,0.0,2.0,96,0.00,,,0.00,Wunderground v.1.15,2013-06-08 06:06:00,
2013-06-08 02:11:00,68.3,67.1,29.81,SW,220,3.0,3.0,96,0.00,,,0.00,Wunderground v.1.15,2013-06-08 06:11:00,
2013-06-08 02:16:00,68.3,67.1,29.81,SW,220,1.0,4.0,96,0.00,,,0.00,Wunderground v.1.15,2013-06-08 06:16:00,
2013-06-08 02:22:00,68.3,67.1,29.81,SW,220,2.0,6.0,96,0.00,,,0.00,Wunderground v.1.15,2013-06-08 06:22:00,
2013-06-08 02:27:00,68.3,67.1,29.81,SW,220,3.0,3.0,96,0.00,,,0.00,Wunderground v.1.15,2013-06-08 06:27:00,
2013-06-08 02:32:00,68.3,67.1,29.81,SW,220,0.0,3.0,96,0.00,,,0.00,Wunderground v.1.15,2013-06-08 06:32:00,
2013-06-08 02:37:00,68.3,67.1,29.81,SW,220,2.0,3.0,96,0.00,,,0.00,Wunderground v.1.15,2013-06-08 06:37:00,
2013-06-08 02:42:00,68.3,67.1,29.81,SW,220,2.0,4.0,96,0.00,,,0.00,Wunderground v.1.15,2013-06-08 06:42:00,
2013-06-08 02:47:00,68.3,67.1,29.81,SW,220,0.0,3.0,96,0.00,,,0.00,Wunderground v.1.15,2013-06-08 06:47:00,
2013-06-08 02:52:00,68.3,67.1,29.81,SW,220,3.0,3.0,96,0.00,,,0.00,Wunderground v.1.15,2013-06-08 06:52:00,
2013-06-08 02:57:00,68.3,67.1,29.81,SW,220,0.0,4.0,96,0.00,,,0.00,Wunderground v.1.15,2013-06-08 06:57:00,
2013-06-08 03:02:00,68.3,67.1,29.81,SW,220,2.0,4.0,96,0.00,,,0.00,Wunderground v.1.15,2013-06-08 07:02:00,
2013-06-08 03:07:00,68.3,67.1,29.82,SW,220,0.0,2.0,96,0.00,,,0.00,Wunderground v.1.15,2013-06-08 07:07:00,
2013-06-08 03:12:00,68.3,67.1,29.81,SW,220,3.0,5.0,96,0.00,,,0.00,Wunderground v.1.15,2013-06-08 07:12:00,
2013-06-08 03:17:00,68.3,67.1,29.81,SW,220,2.0,5.0,96,0.00,,,0.00,Wunderground v.1.15,2013-06-08 07:17:00,
2013-06-08 03:22:00,68.3,67.1,29.81,SW,220,5.0,5.0,96,0.00,,,0.00,Wunderground v.1.15,2013-06-08 07:22:00,
2013-06-08 03:27:00,68.3,67.1,29.81,WSW,245,3.0,4.0,96,0.00,,,0.00,Wunderground v.1.15,2013-06-08 07:27:00,
2013-06-08 03:32:00,68.3,67.1,29.81,WSW,245,0.0,4.0,96,0.00,,,0.00,Wunderground v.1.15,2013-06-08 07:32:00,
2013-06-08 03:37:00,68.4,67.5,29.81,WSW,240,2.0,4.0,97,0.00,,,0.00,Wunderground v.1.15,2013-06-08 07:37:00,
2013-06-08 03:42:00,68.3,67.4,29.81,WSW,240,0.0,4.0,97,0.00,,,0.00,Wunderground v.1.15,2013-06-08 07:42:00,
2013-06-08 03:47:00,68.4,67.2,29.81,WSW,250,2.0,6.0,96,0.00,,,0.00,Wunderground v.1.15,2013-06-08 07:47:00,
2013-06-08 03:52:00,68.4,67.5,29.82,WSW,250,4.0,6.0,97,0.00,,,0.00,Wunderground v.1.15,2013-06-08 07:52:00,
2013-06-08 03:57:00,68.4,67.5,29.81,SSW,207,0.0,3.0,97,0.00,,,0.00,Wunderground v.1.15,2013-06-08 07:57:00,
2013-06-08 04:02:00,68.4,67.5,29.82,West,261,4.0,5.0,97,0.00,,,0.00,Wunderground v.1.15,2013-06-08 08:02:00,
2013-06-08 04:07:00,68.4,67.5,29.82,SW,234,2.0,6.0,97,0.00,,,0.00,Wunderground v.1.15,2013-06-08 08:07:00,
2013-06-08 04:12:00,68.4,67.5,29.82,SW,234,3.0,6.0,97,0.00,,,0.00,Wunderground v.1.15,2013-06-08 08:12:00,
2013-06-08 04:17:00,68.4,67.5,29.83,West,271,0.0,8.0,97,0.00,,,0.00,Wunderground v.1.15,2013-06-08 08:17:00,
2013-06-08 04:22:00,68.4,67.5,29.83,WSW,248,3.0,8.0,97,0.00,,,0.00,Wunderground v.1.15,2013-06-08 08:22:00,
2013-06-08 04:27:00,68.4,67.5,29.83,SW,235,0.0,6.0,97,0.00,,,0.00,Wunderground v.1.15,2013-06-08 08:27:00,
2013-06-08 04:32:00,68.4,67.5,29.83,SSW,200,3.0,6.0,97,0.00,,,0.00,Wunderground v.1.15,2013-06-08 08:32:00,
2013-06-08 04:37:00,68.5,67.3,29.83,SW,215,1.0,4.0,96,0.00,,,0.00,Wunderground v.1.15,2013-06-08 08:37:00,
2013-06-08 04:42:00,68.5,67.3,29.83,SW,234,2.0,5.0,96,0.00,,,0.00,Wunderground v.1.15,2013-06-08 08:42:00,
2013-06-08 04:47:00,68.5,67.3,29.84,SW,234,1.0,4.0,96,0.00,,,0.00,Wunderground v.1.15,2013-06-08 08:47:00,
2013-06-08 04:52:00,68.5,67.3,29.84,SW,234,2.0,4.0,96,0.00,,,0.00,Wunderground v.1.15,2013-06-08 08:52:00,
2013-06-08 04:57:00,68.6,67.4,29.84,SW,234,0.0,3.0,96,0.00,,,0.00,Wunderground v.1.15,2013-06-08 08:57:00,
2013-06-08 05:02:00,68.6,67.4,29.84,WSW,237,3.0,4.0,96,0.00,,,0.00,Wunderground v.1.15,2013-06-08 09:02:00,
2013-06-08 05:08:00,68.6,67.4,29.84,WSW,237,3.0,4.0,96,0.00,,,0.00,Wunderground v.1.15,2013-06-08 09:08:00,
2013-06-08 05:13:00,68.6,67.4,29.84,WSW,237,2.0,4.0,96,0.00,,,0.00,Wunderground v.1.15,2013-06-08 09:13:00,
2013-06-08 05:18:00,68.6,67.4,29.84,WSW,237,3.0,4.0,96,0.00,,,0.00,Wunderground v.1.15,2013-06-08 09:18:00,
2013-06-08 05:23:00,68.7,67.5,29.84,WSW,237,3.0,4.0,96,0.00,,,0.00,Wunderground v.1.15,2013-06-08 09:23:00,
2013-06-08 05:28:00,68.8,67.6,29.84,WSW,237,2.0,4.0,96,0.00,,,0.00,Wunderground v.1.15,2013-06-08 09:28:00,
2013-06-08 05:33:00,68.8,67.3,29.85,WSW,238,3.0,5.0,95,0.00,,,0.00,Wunderground v.1.15,2013-06-08 09:33:00,
2013-06-08 05:38:00,68.8,67.3,29.85,WSW,238,2.0,5.0,95,0.00,,,0.00,Wunderground v.1.15,2013-06-08 09:38:00,
2013-06-08 05:43:00,68.7,67.2,29.85,WSW,238,3.0,5.0,95,0.00,,,0.00,Wunderground v.1.15,2013-06-08 09:43:00,
2013-06-08 05:48:00,68.8,67.3,29.85,WSW,238,2.0,4.0,95,0.00,,,0.00,Wunderground v.1.15,2013-06-08 09:48:00,
2013-06-08 05:53:00,68.8,67.3,29.85,WSW,238,2.0,4.0,95,0.00,,,0.00,Wunderground v.1.15,2013-06-08 09:53:00,
2013-06-08 05:59:00,68.8,67.3,29.86,WSW,238,1.0,4.0,95,0.00,,,0.00,Wunderground v.1.15,2013-06-08 09:59:00,
2013-06-08 06:04:00,68.8,67.3,29.86,WSW,238,2.0,2.0,95,0.00,,,0.00,Wunderground v.1.15,2013-06-08 10:04:00,
2013-06-08 06:09:00,68.7,67.2,29.86,WSW,238,0.0,3.0,95,0.00,,,0.00,Wunderground v.1.15,2013-06-08 10:09:00,
2013-06-08 06:14:00,68.7,67.2,29.86,South,186,1.0,3.0,95,0.00,,,0.00,Wunderground v.1.15,2013-06-08 10:14:00,
2013-06-08 06:19:00,68.7,67.2,29.86,WSW,240,2.0,4.0,95,0.00,,,0.00,Wunderground v.1.15,2013-06-08 10:19:00,
2013-06-08 06:24:00,68.6,67.1,29.86,WSW,240,0.0,2.0,95,0.00,,,0.00,Wunderground v.1.15,2013-06-08 10:24:00,
2013-06-08 06:29:00,68.6,67.1,29.87,WSW,240,2.0,3.0,95,0.00,,,0.00,Wunderground v.1.15,2013-06-08 10:29:00,
2013-06-08 06:34:00,68.6,67.4,29.87,WSW,240,0.0,1.0,96,0.00,,,0.00,Wunderground v.1.15,2013-06-08 10:34:00,
2013-06-08 06:39:00,68.5,67.0,29.87,WSW,240,3.0,4.0,95,0.00,,,0.00,Wunderground v.1.15,2013-06-08 10:39:00,
2013-06-08 06:44:00,68.5,67.0,29.87,WSW,240,2.0,3.0,95,0.00,,,0.00,Wunderground v.1.15,2013-06-08 10:44:00,
2013-06-08 06:49:00,68.5,67.0,29.87,WSW,240,2.0,3.0,95,0.00,,,0.00,Wunderground v.1.15,2013-06-08 10:49:00,
2013-06-08 06:54:00,68.5,67.0,29.87,WSW,243,3.0,5.0,95,0.00,,,0.00,Wunderground v.1.15,2013-06-08 10:54:00,
2013-06-08 06:59:00,68.5,67.3,29.87,WSW,243,0.0,5.0,96,0.00,,,0.00,Wunderground v.1.15,2013-06-08 10:59:00,
2013-06-08 07:04:00,68.5,67.0,29.87,WSW,243,0.0,2.0,95,0.00,,,0.00,Wunderground v.1.15,2013-06-08 11:04:00,
2013-06-08 07:09:00,68.5,67.0,29.88,ESE,123,0.0,5.0,95,0.00,,,0.00,Wunderground v.1.15,2013-06-08 11:09:00,
2013-06-08 07:14:00,68.6,67.1,29.88,SW,236,2.0,2.0,95,0.00,,,0.00,Wunderground v.1.15,2013-06-08 11:14:00,
2013-06-08 07:19:00,68.5,67.0,29.88,SW,230,3.0,4.0,95,0.00,,,0.00,Wunderground v.1.15,2013-06-08 11:19:00,
2013-06-08 07:24:00,68.5,67.0,29.89,SW,235,1.0,3.0,95,0.00,,,0.00,Wunderground v.1.15,2013-06-08 11:24:00,
2013-06-08 07:30:00,68.5,66.7,29.89,WSW,240,3.0,5.0,94,0.00,,,0.00,Wunderground v.1.15,2013-06-08 11:30:00,
2013-06-08 07:35:00,68.5,66.7,29.90,WSW,244,2.0,4.0,94,0.00,,,0.00,Wunderground v.1.15,2013-06-08 11:35:00,
2013-06-08 07:40:00,68.6,66.8,29.89,West,267,0.0,4.0,94,0.00,,,0.00,Wunderground v.1.15,2013-06-08 11:40:00,
2013-06-08 07:45:00,68.6,66.8,29.90,WSW,258,2.0,4.0,94,0.00,,,0.00,Wunderground v.1.15,2013-06-08 11:45:00,
2013-06-08 07:50:00,68.6,66.8,29.90,SW,229,2.0,5.0,94,0.00,,,0.00,Wunderground v.1.15,2013-06-08 11:50:00,
2013-06-08 07:55:00,68.7,66.9,29.90,SW,230,1.0,4.0,94,0.00,,,0.00,Wunderground v.1.15,2013-06-08 11:55:00,
2013-06-08 08:00:00,68.9,67.1,29.90,SW,230,0.0,4.0,94,0.00,,,0.00,Wunderground v.1.15,2013-06-08 12:00:00,
2013-06-08 08:05:00,69.0,67.2,29.91,SW,230,1.0,3.0,94,0.00,,,0.00,Wunderground v.1.15,2013-06-08 12:05:00,
2013-06-08 08:10:00,69.1,67.3,29.91,SW,231,4.0,4.0,94,0.00,,,0.00,Wunderground v.1.15,2013-06-08 12:10:00,
2013-06-08 08:15:00,69.2,67.4,29.92,SW,230,0.0,3.0,94,0.00,,,0.00,Wunderground v.1.15,2013-06-08 12:15:00,
2013-06-08 08:20:00,69.3,67.5,29.92,SW,230,2.0,4.0,94,0.00,,,0.00,Wunderground v.1.15,2013-06-08 12:20:00,
2013-06-08 08:25:00,69.4,67.6,29.92,West,272,4.0,5.0,94,0.00,,,0.00,Wunderground v.1.15,2013-06-08 12:25:00,
2013-06-08 08:30:00,69.6,67.8,29.92,SW,228,2.0,5.0,94,0.00,,,0.00,Wunderground v.1.15,2013-06-08 12:30:00,
2013-06-08 08:35:00,69.7,67.6,29.92,WSW,248,2.0,5.0,93,0.00,,,0.00,Wunderground v.1.15,2013-06-08 12:35:00,
2013-06-08 08:40:00,69.8,67.7,29.92,WSW,250,5.0,7.0,93,0.00,,,0.00,Wunderground v.1.15,2013-06-08 12:40:00,
2013-06-08 08:45:00,70.0,67.6,29.93,WSW,254,6.0,6.0,92,0.00,,,0.00,Wunderground v.1.15,2013-06-08 12:45:00,
2013-06-08 08:50:00,70.1,67.7,29.92,WSW,257,0.0,7.0,92,0.00,,,0.00,Wunderground v.1.15,2013-06-08 12:50:00,
2013-06-08 08:55:00,70.3,67.9,29.93,WSW,257,0.0,2.0,92,0.00,,,0.00,Wunderground v.1.15,2013-06-08 12:55:00,
2013-06-08 09:00:00,70.5,67.7,29.93,WSW,257,0.0,4.0,91,0.00,,,0.00,Wunderground v.1.15,2013-06-08 13:00:00,
2013-06-08 09:05:00,70.6,67.8,29.93,WNW,290,4.0,5.0,91,0.00,,,0.00,Wunderground v.1.15,2013-06-08 13:05:00,
2013-06-08 09:10:00,70.7,67.9,29.94,West,271,1.0,6.0,91,0.00,,,0.00,Wunderground v.1.15,2013-06-08 13:10:00,
2013-06-08 09:15:00,70.9,67.8,29.94,West,259,4.0,6.0,90,0.00,,,0.00,Wunderground v.1.15,2013-06-08 13:15:00,
2013-06-08 09:20:00,71.0,67.6,29.94,SSW,196,3.0,6.0,89,0.00,,,0.00,Wunderground v.1.15,2013-06-08 13:20:00,
2013-06-08 09:25:00,71.2,67.8,29.94,WSW,246,0.0,5.0,89,0.00,,,0.00,Wunderground v.1.15,2013-06-08 13:25:00,
2013-06-08 09:30:00,71.3,67.6,29.95,WSW,247,2.0,8.0,88,0.00,,,0.00,Wunderground v.1.15,2013-06-08 13:30:00,
2013-06-08 09:35:00,71.4,67.3,29.95,WSW,244,4.0,7.0,87,0.00,,,0.00,Wunderground v.1.15,2013-06-08 13:35:00,
2013-06-08 09:40:00,71.9,68.2,29.95,WSW,253,5.0,10.0,88,0.00,,,0.00,Wunderground v.1.15,2013-06-08 13:40:00,
2013-06-08 09:45:00,72.2,67.8,29.95,SW,219,5.0,7.0,86,0.00,,,0.00,Wunderground v.1.15,2013-06-08 13:45:00,
2013-06-08 09:50:00,72.3,67.9,29.96,WSW,256,3.0,10.0,86,0.00,,,0.00,Wunderground v.1.15,2013-06-08 13:50:00,
2013-06-08 09:55:00,72.3,67.9,29.96,West,281,7.0,9.0,86,0.00,,,0.00,Wunderground v.1.15,2013-06-08 13:55:00,
2013-06-08 10:00:00,72.2,67.4,29.96,West,281,6.0,9.0,85,0.00,,,0.00,Wunderground v.1.15,2013-06-08 14:00:00,
2013-06-08 10:05:00,72.5,67.7,29.96,West,273,1.0,8.0,85,0.00,,,0.00,Wunderground v.1.15,2013-06-08 14:05:00,
2013-06-08 10:10:00,72.9,67.8,29.96,WSW,254,2.0,8.0,84,0.00,,,0.00,Wunderground v.1.15,2013-06-08 14:10:00,
2013-06-08 10:15:00,73.0,67.9,29.96,West,261,3.0,7.0,84,0.00,,,0.00,Wunderground v.1.15,2013-06-08 14:15:00,
2013-06-08 10:20:00,72.9,67.4,29.96,West,260,5.0,8.0,83,0.00,,,0.00,Wunderground v.1.15,2013-06-08 14:20:00,
2013-06-08 10:25:00,73.0,67.5,29.96,WSW,244,6.0,10.0,83,0.00,,,0.00,Wunderground v.1.15,2013-06-08 14:25:00,
2013-06-08 10:30:00,73.4,67.6,29.96,South,183,6.0,13.0,82,0.00,,,0.00,Wunderground v.1.15,2013-06-08 14:30:00,
2013-06-08 10:36:00,73.7,67.9,29.96,WSW,254,4.0,7.0,82,0.00,,,0.00,Wunderground v.1.15,2013-06-08 14:36:00,
2013-06-08 10:41:00,73.8,68.3,29.97,WSW,247,4.0,7.0,83,0.00,,,0.00,Wunderground v.1.15,2013-06-08 14:41:00,
2013-06-08 10:46:00,74.1,67.5,29.97,West,270,4.0,7.0,80,0.00,,,0.00,Wunderground v.1.15,2013-06-08 14:46:00,
2013-06-08 10:51:00,74.2,67.6,29.97,WSW,258,0.0,7.0,80,0.00,,,0.00,Wunderground v.1.15,2013-06-08 14:51:00,
2013-06-08 10:56:00,74.7,68.8,29.97,West,264,6.0,8.0,82,0.00,,,0.00,Wunderground v.1.15,2013-06-08 14:56:00,
2013-06-08 11:01:00,74.8,68.2,29.97,WSW,241,2.0,8.0,80,0.00,,,0.00,Wunderground v.1.15,2013-06-08 15:01:00,
2013-06-08 11:06:00,74.9,68.3,29.97,SW,223,4.0,5.0,80,0.00,,,0.00,Wunderground v.1.15,2013-06-08 15:06:00,
2013-06-08 11:11:00,75.0,68.0,29.97,SW,219,5.0,8.0,79,0.00,,,0.00,Wunderground v.1.15,2013-06-08 15:11:00,
2013-06-08 11:16:00,75.3,68.3,29.98,WSW,249,2.0,8.0,79,0.00,,,0.00,Wunderground v.1.15,2013-06-08 15:16:00,
2013-06-08 11:21:00,75.4,68.1,29.98,SW,218,3.0,8.0,78,0.00,,,0.00,Wunderground v.1.15,2013-06-08 15:21:00,
2013-06-08 11:26:00,75.6,68.3,29.98,SW,226,5.0,8.0,78,0.00,,,0.00,Wunderground v.1.15,2013-06-08 15:26:00,
2013-06-08 11:31:00,75.9,68.2,29.98,West,274,6.0,8.0,77,0.00,,,0.00,Wunderground v.1.15,2013-06-08 15:31:00,
2013-06-08 11:36:00,76.2,68.8,29.98,WNW,302,8.0,11.0,78,0.00,,,0.00,Wunderground v.1.15,2013-06-08 15:36:00,
2013-06-08 11:41:00,76.2,68.1,29.98,West,264,5.0,11.0,76,0.00,,,0.00,Wunderground v.1.15,2013-06-08 15:41:00,
2013-06-08 11:46:00,76.4,67.5,29.98,West,262,2.0,6.0,74,0.00,,,0.00,Wunderground v.1.15,2013-06-08 15:46:00,
2013-06-08 11:51:00,76.6,68.5,29.98,SW,231,7.0,13.0,76,0.00,,,0.00,Wunderground v.1.15,2013-06-08 15:51:00,
2013-06-08 11:56:00,77.0,68.1,29.98,West,277,2.0,10.0,74,0.00,,,0.00,Wunderground v.1.15,2013-06-08 15:56:00,
2013-06-08 12:01:00,77.3,68.8,29.98,West,276,0.0,10.0,75,0.00,,,0.00,Wunderground v.1.15,2013-06-08 16:01:00,
2013-06-08 12:06:00,77.6,69.0,29.98,WSW,257,3.0,4.0,75,0.00,,,0.00,Wunderground v.1.15,2013-06-08 16:06:00,
2013-06-08 12:11:00,78.0,68.2,29.98,SW,229,0.0,8.0,72,0.00,,,0.00,Wunderground v.1.15,2013-06-08 16:11:00,
2013-06-08 12:16:00,77.9,67.3,29.98,West,271,0.0,8.0,70,0.00,,,0.00,Wunderground v.1.15,2013-06-08 16:16:00,
2013-06-08 12:21:00,78.2,68.0,29.98,WSW,252,2.0,8.0,71,0.00,,,0.00,Wunderground v.1.15,2013-06-08 16:21:00,
2013-06-08 12:26:00,78.5,68.7,29.98,SSE,148,2.0,7.0,72,0.00,,,0.00,Wunderground v.1.15,2013-06-08 16:26:00,
2013-06-08 12:32:00,78.6,68.0,29.98,NE,39,1.0,7.0,70,0.00,,,0.00,Wunderground v.1.15,2013-06-08 16:32:00,
2013-06-08 12:37:00,78.8,68.2,29.98,West,262,3.0,6.0,70,0.00,,,0.00,Wunderground v.1.15,2013-06-08 16:37:00,
2013-06-08 12:42:00,79.2,68.1,29.97,WNW,295,0.0,6.0,69,0.00,,,0.00,Wunderground v.1.15,2013-06-08 16:42:00,
2013-06-08 12:47:00,79.9,68.4,29.98,WSW,246,0.0,7.0,68,0.00,,,0.00,Wunderground v.1.15,2013-06-08 16:47:00,
2013-06-08 12:52:00,80.1,67.7,29.98,NW,312,0.0,7.0,66,0.00,,,0.00,Wunderground v.1.15,2013-06-08 16:52:00,
2013-06-08 12:57:00,80.1,67.7,29.98,WSW,251,0.0,7.0,66,0.00,,,0.00,Wunderground v.1.15,2013-06-08 16:57:00,
2013-06-08 13:02:00,80.2,68.7,29.98,WSW,252,2.0,7.0,68,0.00,,,0.00,Wunderground v.1.15,2013-06-08 17:02:00,
2013-06-08 13:07:00,80.2,68.7,29.98,SW,227,4.0,6.0,68,0.00,,,0.00,Wunderground v.1.15,2013-06-08 17:07:00,
2013-06-08 13:12:00,80.0,68.1,29.98,NNE,17,0.0,6.0,67,0.00,,,0.00,Wunderground v.1.15,2013-06-08 17:12:00,
2013-06-08 13:17:00,80.1,68.2,29.98,SW,236,3.0,4.0,67,0.00,,,0.00,Wunderground v.1.15,2013-06-08 17:17:00,
2013-06-08 13:22:00,80.6,67.7,29.97,WSW,238,0.0,4.0,65,0.00,,,0.00,Wunderground v.1.15,2013-06-08 17:22:00,
2013-06-08 13:27:00,80.8,68.8,29.97,West,275,2.0,4.0,67,0.00,,,0.00,Wunderground v.1.15,2013-06-08 17:27:00,
2013-06-08 13:32:00,81.0,67.2,29.97,WSW,246,0.0,7.0,63,0.00,,,0.00,Wunderground v.1.15,2013-06-08 17:32:00,
2013-06-08 13:37:00,81.5,67.7,29.97,SSW,209,0.0,6.0,63,0.00,,,0.00,Wunderground v.1.15,2013-06-08 17:37:00,
2013-06-08 13:42:00,81.8,68.0,29.97,West,263,2.0,7.0,63,0.00,,,0.00,Wunderground v.1.15,2013-06-08 17:42:00,
2013-06-08 13:47:00,81.7,68.3,29.97,WSW,252,6.0,7.0,64,0.00,,,0.00,Wunderground v.1.15,2013-06-08 17:47:00,
2013-06-08 13:52:00,81.8,67.5,29.97,SW,218,7.0,9.0,62,0.00,,,0.00,Wunderground v.1.15,2013-06-08 17:52:00,
2013-06-08 13:57:00,81.8,68.0,29.97,SSW,200,4.0,7.0,63,0.00,,,0.00,Wunderground v.1.15,2013-06-08 17:57:00,
2013-06-08 14:02:00,82.0,67.2,29.97,WSW,253,2.0,9.0,61,0.00,,,0.00,Wunderground v.1.15,2013-06-08 18:02:00,
2013-06-08 14:07:00,81.6,67.8,29.97,West,266,2.0,4.0,63,0.00,,,0.00,Wunderground v.1.15,2013-06-08 18:07:00,
2013-06-08 14:12:00,81.4,67.6,29.97,WSW,243,4.0,6.0,63,0.00,,,0.00,Wunderground v.1.15,2013-06-08 18:12:00,
2013-06-08 14:17:00,81.2,67.4,29.97,WSW,244,0.0,6.0,63,0.00,,,0.00,Wunderground v.1.15,2013-06-08 18:17:00,
2013-06-08 14:22:00,81.6,68.2,29.96,West,277,6.0,9.0,64,0.00,,,0.00,Wunderground v.1.15,2013-06-08 18:22:00,
2013-06-08 14:27:00,81.9,67.1,29.97,WSW,257,2.0,4.0,61,0.00,,,0.00,Wunderground v.1.15,2013-06-08 18:27:00,
2013-06-08 14:32:00,82.4,68.1,29.97,WSW,254,2.0,4.0,62,0.00,,,0.00,Wunderground v.1.15,2013-06-08 18:32:00,
2013-06-08 14:37:00,83.0,69.1,29.97,WSW,248,3.0,5.0,63,0.00,,,0.00,Wunderground v.1.15,2013-06-08 18:37:00,
2013-06-08 14:42:00,83.4,68.5,29.97,WSW,244,3.0,7.0,61,0.00,,,0.00,Wunderground v.1.15,2013-06-08 18:42:00,
2013-06-08 14:47:00,83.1,68.3,29.97,WSW,248,0.0,5.0,61,0.00,,,0.00,Wunderground v.1.15,2013-06-08 18:47:00,
2013-06-08 14:52:00,83.0,69.1,29.97,WSW,239,2.0,7.0,63,0.00,,,0.00,Wunderground v.1.15,2013-06-08 18:52:00,
2013-06-08 14:57:00,83.2,68.3,29.97,SW,234,4.0,6.0,61,0.00,,,0.00,Wunderground v.1.15,2013-06-08 18:57:00,
2013-06-08 15:02:00,83.5,69.1,29.97,WNW,283,1.0,10.0,62,0.00,,,0.00,Wunderground v.1.15,2013-06-08 19:02:00,
2013-06-08 15:07:00,83.4,67.6,29.97,SW,215,3.0,8.0,59,0.00,,,0.00,Wunderground v.1.15,2013-06-08 19:07:00,
2013-06-08 15:12:00,83.5,68.6,29.96,SSW,212,7.0,10.0,61,0.00,,,0.00,Wunderground v.1.15,2013-06-08 19:12:00,
2013-06-08 15:17:00,83.3,68.9,29.96,SW,235,6.0,9.0,62,0.00,,,0.00,Wunderground v.1.15,2013-06-08 19:17:00,
2013-06-08 15:22:00,83.1,69.2,29.96,West,265,4.0,11.0,63,0.00,,,0.00,Wunderground v.1.15,2013-06-08 19:22:00,
2013-06-08 15:27:00,83.3,68.4,29.96,WSW,257,4.0,7.0,61,0.00,,,0.00,Wunderground v.1.15,2013-06-08 19:27:00,
2013-06-08 15:32:00,83.5,69.1,29.96,SSW,206,3.0,7.0,62,0.00,,,0.00,Wunderground v.1.15,2013-06-08 19:32:00,
2013-06-08 15:37:00,83.5,69.1,29.96,SW,219,0.0,4.0,62,0.00,,,0.00,Wunderground v.1.15,2013-06-08 19:37:00,
2013-06-08 15:42:00,83.8,69.4,29.96,SW,221,2.0,5.0,62,0.00,,,0.00,Wunderground v.1.15,2013-06-08 19:42:00,
2013-06-08 15:47:00,84.0,68.6,29.96,SW,220,3.0,10.0,60,0.00,,,0.00,Wunderground v.1.15,2013-06-08 19:47:00,
2013-06-08 15:52:00,83.9,69.0,29.96,WSW,258,2.0,10.0,61,0.00,,,0.00,Wunderground v.1.15,2013-06-08 19:52:00,
2013-06-08 15:57:00,83.9,68.5,29.96,SW,217,3.0,7.0,60,0.00,,,0.00,Wunderground v.1.15,2013-06-08 19:57:00,
2013-06-08 16:02:00,84.5,69.6,29.96,WSW,249,7.0,7.0,61,0.00,,,0.00,Wunderground v.1.15,2013-06-08 20:02:00,
2013-06-08 16:08:00,84.7,69.3,29.96,WSW,252,7.0,7.0,60,0.00,,,0.00,Wunderground v.1.15,2013-06-08 20:08:00,
2013-06-08 16:13:00,84.5,68.6,29.96,SSW,211,0.0,7.0,59,0.00,,,0.00,Wunderground v.1.15,2013-06-08 20:13:00,
2013-06-08 16:18:00,84.3,68.9,29.96,SW,226,4.0,7.0,60,0.00,,,0.00,Wunderground v.1.15,2013-06-08 20:18:00,
2013-06-08 16:23:00,84.2,68.8,29.96,SW,228,4.0,8.0,60,0.00,,,0.00,Wunderground v.1.15,2013-06-08 20:23:00,
2013-06-08 16:28:00,84.2,69.3,29.96,WSW,242,4.0,7.0,61,0.00,,,0.00,Wunderground v.1.15,2013-06-08 20:28:00,
2013-06-08 16:33:00,84.2,69.3,29.96,SW,225,4.0,7.0,61,0.00,,,0.00,Wunderground v.1.15,2013-06-08 20:33:00,
2013-06-08 16:38:00,84.2,69.3,29.96,SW,227,6.0,8.0,61,0.00,,,0.00,Wunderground v.1.15,2013-06-08 20:38:00,
2013-06-08 16:43:00,84.3,68.9,29.96,SW,221,3.0,8.0,60,0.00,,,0.00,Wunderground v.1.15,2013-06-08 20:43:00,
2013-06-08 16:48:00,84.5,68.6,29.96,WSW,249,3.0,7.0,59,0.00,,,0.00,Wunderground v.1.15,2013-06-08 20:48:00,
2013-06-08 16:53:00,84.5,69.6,29.96,WSW,246,0.0,7.0,61,0.00,,,0.00,Wunderground v.1.15,2013-06-08 20:53:00,
2013-06-08 16:58:00,84.7,68.8,29.96,West,271,2.0,8.0,59,0.00,,,0.00,Wunderground v.1.15,2013-06-08 20:58:00,
2013-06-08 17:03:00,84.5,68.6,29.96,SW,224,2.0,8.0,59,0.00,,,0.00,Wunderground v.1.15,2013-06-08 21:03:00,
2013-06-08 17:08:00,84.3,68.9,29.96,West,265,0.0,6.0,60,0.00,,,0.00,Wunderground v.1.15,2013-06-08 21:08:00,
2013-06-08 17:13:00,84.1,69.2,29.95,WSW,257,3.0,6.0,61,0.00,,,0.00,Wunderground v.1.15,2013-06-08 21:13:00,
2013-06-08 17:18:00,83.9,69.0,29.95,WSW,254,0.0,5.0,61,0.00,,,0.00,Wunderground v.1.15,2013-06-08 21:18:00,
2013-06-08 17:23:00,84.0,69.6,29.95,WSW,252,3.0,5.0,62,0.00,,,0.00,Wunderground v.1.15,2013-06-08 21:23:00,
2013-06-08 17:28:00,84.1,69.7,29.95,SW,236,6.0,6.0,62,0.00,,,0.00,Wunderground v.1.15,2013-06-08 21:28:00,
2013-06-08 17:33:00,84.2,69.8,29.96,West,269,3.0,12.0,62,0.00,,,0.00,Wunderground v.1.15,2013-06-08 21:33:00,
2013-06-08 17:38:00,84.1,69.7,29.96,WSW,245,3.0,6.0,62,0.00,,,0.00,Wunderground v.1.15,2013-06-08 21:38:00,
2013-06-08 17:43:00,83.9,69.0,29.95,WSW,252,0.0,7.0,61,0.00,,,0.00,Wunderground v.1.15,2013-06-08 21:43:00,
2013-06-08 17:48:00,83.8,68.9,29.96,WSW,243,2.0,7.0,61,0.00,,,0.00,Wunderground v.1.15,2013-06-08 21:48:00,
2013-06-08 17:53:00,83.8,68.9,29.96,WSW,243,2.0,7.0,61,0.00,,,0.00,Wunderground v.1.15,2013-06-08 21:53:00,
2013-06-08 17:58:00,83.6,69.7,29.96,SW,236,4.0,6.0,63,0.00,,,0.00,Wunderground v.1.15,2013-06-08 21:58:00,
2013-06-08 18:03:00,83.8,69.4,29.96,WSW,238,4.0,10.0,62,0.00,,,0.00,Wunderground v.1.15,2013-06-08 22:03:00,
2013-06-08 18:08:00,83.7,68.8,29.96,WSW,247,5.0,5.0,61,0.00,,,0.00,Wunderground v.1.15,2013-06-08 22:08:00,
2013-06-08 18:13:00,83.5,68.6,29.95,WSW,252,2.0,6.0,61,0.00,,,0.00,Wunderground v.1.15,2013-06-08 22:13:00,
2013-06-08 18:18:00,83.6,68.7,29.95,West,261,2.0,6.0,61,0.00,,,0.00,Wunderground v.1.15,2013-06-08 22:18:00,
2013-06-08 18:23:00,83.8,68.4,29.96,SW,235,3.0,6.0,60,0.00,,,0.00,Wunderground v.1.15,2013-06-08 22:23:00,
2013-06-08 18:28:00,83.7,68.8,29.96,WSW,248,3.0,5.0,61,0.00,,,0.00,Wunderground v.1.15,2013-06-08 22:28:00,
2013-06-08 18:33:00,83.6,69.7,29.96,WSW,248,3.0,5.0,63,0.00,,,0.00,Wunderground v.1.15,2013-06-08 22:33:00,
2013-06-08 18:38:00,83.5,69.6,29.96,WSW,247,4.0,5.0,63,0.00,,,0.00,Wunderground v.1.15,2013-06-08 22:38:00,
2013-06-08 18:43:00,83.4,69.9,29.96,WSW,246,3.0,5.0,64,0.00,,,0.00,Wunderground v.1.15,2013-06-08 22:43:00,
2013-06-08 18:48:00,83.2,69.8,29.97,WSW,246,2.0,4.0,64,0.00,,,0.00,Wunderground v.1.15,2013-06-08 22:48:00,
2013-06-08 18:53:00,83.1,68.7,29.96,WSW,246,3.0,5.0,62,0.00,,,0.00,Wunderground v.1.15,2013-06-08 22:53:00,
2013-06-08 18:58:00,83.1,69.7,29.97,SW,228,3.0,5.0,64,0.00,,,0.00,Wunderground v.1.15,2013-06-08 22:58:00,
2013-06-08 19:03:00,82.9,69.9,29.97,SW,221,6.0,9.0,65,0.00,,,0.00,Wunderground v.1.15,2013-06-08 23:03:00,
2013-06-08 19:08:00,82.6,70.1,29.97,SW,214,6.0,7.0,66,0.00,,,0.00,Wunderground v.1.15,2013-06-08 23:08:00,
2013-06-08 19:13:00,82.6,70.1,29.98,SSW,211,6.0,7.0,66,0.00,,,0.00,Wunderground v.1.15,2013-06-08 23:13:00,
2013-06-08 19:18:00,82.4,69.9,29.98,SSW,205,5.0,7.0,66,0.00,,,0.00,Wunderground v.1.15,2013-06-08 23:18:00,
2013-06-08 19:23:00,82.4,70.3,29.98,SSW,213,4.0,4.0,67,0.00,,,0.00,Wunderground v.1.15,2013-06-08 23:23:00,
2013-06-08 19:28:00,82.3,70.2,29.99,SW,216,5.0,5.0,67,0.00,,,0.00,Wunderground v.1.15,2013-06-08 23:28:00,
2013-06-08 19:34:00,82.1,70.5,29.99,SW,215,4.0,4.0,68,0.00,,,0.00,Wunderground v.1.15,2013-06-08 23:34:00,
2013-06-08 19:39:00,81.9,70.7,29.99,SW,214,3.0,5.0,69,0.00,,,0.00,Wunderground v.1.15,2013-06-08 23:39:00,
2013-06-08 19:44:00,81.8,71.1,29.99,SW,214,2.0,3.0,70,0.00,,,0.00,Wunderground v.1.15,2013-06-08 23:44:00,
2013-06-08 19:49:00,81.6,71.3,29.99,SW,214,4.0,5.0,71,0.00,,,0.00,Wunderground v.1.15,2013-06-08 23:49:00,
2013-06-08 19:54:00,81.3,71.4,29.99,SW,214,3.0,3.0,72,0.00,,,0.00,Wunderground v.1.15,2013-06-08 23:54:00,
2013-06-08 19:59:00,81.1,71.2,29.99,SW,214,4.0,4.0,72,0.00,,,0.00,Wunderground v.1.15,2013-06-08 23:59:00,
2013-06-08 20:04:00,81.0,71.1,29.99,SSW,213,5.0,5.0,72,0.00,,,0.00,Wunderground v.1.15,2013-06-09 00:04:00,
2013-06-08 20:09:00,80.7,71.2,30.00,SSW,213,2.0,5.0,73,0.00,,,0.00,Wunderground v.1.15,2013-06-09 00:09:00,
2013-06-08 20:14:00,80.4,70.9,29.99,SSW,213,2.0,3.0,73,0.00,,,0.00,Wunderground v.1.15,2013-06-09 00:14:00,
2013-06-08 20:19:00,80.2,71.2,30.00,SSW,213,2.0,4.0,74,0.00,,,0.00,Wunderground v.1.15,2013-06-09 00:19:00,
2013-06-08 20:24:00,80.0,71.0,30.00,SSW,213,3.0,3.0,74,0.00,,,0.00,Wunderground v.1.15,2013-06-09 00:24:00,
2013-06-08 20:29:00,79.9,70.9,30.00,SSW,213,3.0,4.0,74,0.00,,,0.00,Wunderground v.1.15,2013-06-09 00:29:00,
2013-06-08 20:34:00,79.6,71.4,30.00,SSW,213,1.0,2.0,76,0.00,,,0.00,Wunderground v.1.15,2013-06-09 00:34:00,
2013-06-08 20:39:00,79.2,71.4,30.01,SSW,213,0.0,2.0,77,0.00,,,0.00,Wunderground v.1.15,2013-06-09 00:39:00,
2013-06-08 20:44:00,78.8,71.0,30.01,SSW,213,0.0,0.0,77,0.00,,,0.00,Wunderground v.1.15,2013-06-09 00:44:00,
2013-06-08 20:49:00,78.4,71.0,30.01,SSW,213,0.0,0.0,78,0.00,,,0.00,Wunderground v.1.15,2013-06-09 00:49:00,
2013-06-08 20:54:00,78.2,71.2,30.01,SSW,213,0.0,0.0,79,0.00,,,0.00,Wunderground v.1.15,2013-06-09 00:54:00,
2013-06-08 20:59:00,77.8,71.1,30.01,SSW,213,0.0,0.0,80,0.00,,,0.00,Wunderground v.1.15,2013-06-09 00:59:00,
2013-06-08 21:04:00,77.5,71.2,30.01,SSW,213,0.0,0.0,81,0.00,,,0.00,Wunderground v.1.15,2013-06-09 01:04:00,
2013-06-08 21:09:00,77.5,70.8,30.01,SSW,213,3.0,4.0,80,0.00,,,0.00,Wunderground v.1.15,2013-06-09 01:09:00,
2013-06-08 21:14:00,77.6,70.9,30.02,SSW,213,3.0,5.0,80,0.00,,,0.00,Wunderground v.1.15,2013-06-09 01:14:00,
2013-06-08 21:19:00,77.6,70.9,30.02,SSW,213,4.0,5.0,80,0.00,,,0.00,Wunderground v.1.15,2013-06-09 01:19:00,
2013-06-08 21:24:00,77.5,70.5,30.02,SSW,213,3.0,4.0,79,0.00,,,0.00,Wunderground v.1.15,2013-06-09 01:24:00,
2013-06-08 21:29:00,77.5,70.5,30.02,SSW,213,3.0,5.0,79,0.00,,,0.00,Wunderground v.1.15,2013-06-09 01:29:00,
2013-06-08 21:34:00,77.5,70.5,30.01,SSW,213,3.0,5.0,79,0.00,,,0.00,Wunderground v.1.15,2013-06-09 01:34:00,
2013-06-08 21:39:00,77.3,70.6,30.01,SSW,213,0.0,5.0,80,0.00,,,0.00,Wunderground v.1.15,2013-06-09 01:39:00,
2013-06-08 21:44:00,77.1,70.5,30.02,SSW,213,0.0,1.0,80,0.00,,,0.00,Wunderground v.1.15,2013-06-09 01:44:00,
2013-06-08 21:49:00,76.9,70.3,30.02,SSW,213,0.0,1.0,80,0.00,,,0.00,Wunderground v.1.15,2013-06-09 01:49:00,
2013-06-08 21:54:00,76.9,70.3,30.03,SSW,213,0.0,0.0,80,0.00,,,0.00,Wunderground v.1.15,2013-06-09 01:54:00,
2013-06-08 21:59:00,76.7,70.4,30.03,SSW,213,0.0,0.0,81,0.00,,,0.00,Wunderground v.1.15,2013-06-09 01:59:00,
2013-06-08 22:04:00,76.4,70.5,30.03,SSW,213,0.0,0.0,82,0.00,,,0.00,Wunderground v.1.15,2013-06-09 02:04:00,
2013-06-08 22:09:00,75.9,70.0,30.03,SSW,213,0.0,0.0,82,0.00,,,0.00,Wunderground v.1.15,2013-06-09 02:09:00,
2013-06-08 22:14:00,75.5,70.3,30.03,SSW,213,0.0,0.0,84,0.00,,,0.00,Wunderground v.1.15,2013-06-09 02:14:00,
2013-06-08 22:19:00,75.1,69.9,30.03,SSW,213,0.0,0.0,84,0.00,,,0.00,Wunderground v.1.15,2013-06-09 02:19:00,
2013-06-08 22:24:00,74.8,70.0,30.03,SSW,213,0.0,0.0,85,0.00,,,0.00,Wunderground v.1.15,2013-06-09 02:24:00,
2013-06-08 22:29:00,74.6,69.8,30.03,SSW,213,0.0,0.0,85,0.00,,,0.00,Wunderground v.1.15,2013-06-09 02:29:00,
2013-06-08 22:35:00,74.5,69.7,30.03,SSW,213,0.0,0.0,85,0.00,,,0.00,Wunderground v.1.15,2013-06-09 02:35:00,
2013-06-08 22:40:00,74.2,70.1,30.04,SSW,213,0.0,0.0,87,0.00,,,0.00,Wunderground v.1.15,2013-06-09 02:40:00,
2013-06-08 22:45:00,74.0,70.2,30.03,SSW,213,0.0,0.0,88,0.00,,,0.00,Wunderground v.1.15,2013-06-09 02:45:00,
2013-06-08 22:50:00,73.8,70.0,30.03,SSW,213,0.0,0.0,88,0.00,,,0.00,Wunderground v.1.15,2013-06-09 02:50:00,
2013-06-08 22:55:00,73.7,69.9,30.03,SSW,213,0.0,0.0,88,0.00,,,0.00,Wunderground v.1.15,2013-06-09 02:55:00,
2013-06-08 23:00:00,73.5,70.1,30.04,SSW,213,0.0,0.0,89,0.00,,,0.00,Wunderground v.1.15,2013-06-09 03:00:00,
2013-06-08 23:05:00,73.4,70.0,30.04,SSW,213,0.0,0.0,89,0.00,,,0.00,Wunderground v.1.15,2013-06-09 03:05:00,
2013-06-08 23:10:00,73.3,69.9,30.04,SSW,213,0.0,0.0,89,0.00,,,0.00,Wunderground v.1.15,2013-06-09 03:10:00,
2013-06-08 23:15:00,73.2,70.1,30.04,SSW,213,0.0,0.0,90,0.00,,,0.00,Wunderground v.1.15,2013-06-09 03:15:00,
2013-06-08 23:20:00,73.1,70.0,30.04,SSW,213,0.0,0.0,90,0.00,,,0.00,Wunderground v.1.15,2013-06-09 03:20:00,
2013-06-08 23:25:00,73.1,70.0,30.04,SSW,213,0.0,0.0,90,0.00,,,0.00,Wunderground v.1.15,2013-06-09 03:25:00,
2013-06-08 23:30:00,73.0,69.9,30.03,SSW,213,0.0,0.0,90,0.00,,,0.00,Wunderground v.1.15,2013-06-09 03:30:00,
2013-06-08 23:35:00,73.0,69.9,30.04,SSW,213,0.0,0.0,90,0.00,,,0.00,Wunderground v.1.15,2013-06-09 03:35:00,
2013-06-08 23:40:00,73.0,69.9,30.04,SSW,213,0.0,0.0,90,0.00,,,0.00,Wunderground v.1.15,2013-06-09 03:40:00,
2013-06-08 23:45:00,73.0,69.9,30.04,SSW,213,0.0,0.0,90,0.00,,,0.00,Wunderground v.1.15,2013-06-09 03:45:00,
2013-06-08 23:46:00,74.8,73.6,30.08,ENE,59,0.0,0.0,96,0.05,,,0.26,Wunderground v.1.15,2013-06-09 03:46:00,
2013-06-08 23:47:00,74.8,73.6,30.08,ENE,59,0.0,0.0,96,0.05,,,0.26,Wunderground v.1.15,2013-06-09 03:47:00,
2013-06-08 23:48:00,74.8,73.6,30.08,ENE,59,0.0,0.0,96,0.05,,,0.26,Wunderground v.1.15,2013-06-09 03:48:00,
2013-06-08 23:49:00,74.8,73.6,30.08,ENE,59,0.0,0.0,96,0.05,,,0.26,Wunderground v.1.15,2013-06-09 03:49:00,
2013-06-08 23:50:00,72.9,69.8,30.04,SSW,213,0.0,0.0,90,0.00,,,0.00,Wunderground v.1.15,2013-06-09 03:50:00,
2013-06-08 23:51:00,74.8,73.6,30.08,ENE,59,0.0,0.0,96,0.05,,,0.26,Wunderground v.1.15,2013-06-09 03:51:00,
2013-06-08 23:52:00,74.8,73.6,30.07,ENE,59,0.0,0.0,96,0.05,,,0.00,Wunderground v.1.15,2013-06-09 03:52:00,
2013-06-08 23:53:00,74.8,73.6,30.07,ENE,59,0.0,0.0,96,0.05,,,0.00,Wunderground v.1.15,2013-06-09 03:53:00,
2013-06-08 23:54:00,74.8,73.6,30.07,ENE,59,0.0,0.0,96,0.05,,,0.00,Wunderground v.1.15,2013-06-09 03:54:00,
2013-06-08 23:55:00,72.8,69.7,30.04,SSW,213,0.0,0.0,90,0.00,,,0.00,Wunderground v.1.15,2013-06-09 03:55:00,